TimeMST,TemperatureF,Dew PointF,Humidity,Sea Level PressureIn,VisibilityMPH,Wind Direction,Wind SpeedMPH,Gust SpeedMPH,PrecipitationIn,Events,Conditions,WindDirDegrees,DateUTC
12:53 AM,37.9,1.0,21,29.94,10.0,West,23.0,-,N/A,,Clear,280,2013-01-22 07:53:00
1:53 AM,39.9,-0.0,19,29.93,10.0,West,32.2,40.3,N/A,,Clear,270,2013-01-22 08:53:00
2:53 AM,39.9,-0.0,19,29.92,10.0,West,33.4,41.4,N/A,,Clear,280,2013-01-22 09:53:00
3:53 AM,39.9,-0.0,19,29.96,10.0,WNW,12.7,34.5,N/A,,Clear,300,2013-01-22 10:53:00
4:51 AM,39.2,-0.4,19,30.02,10.0,WNW,12.7,21.9,N/A,,Clear,290,2013-01-22 11:51:00
4:53 AM,39.0,-0.9,19,29.98,10.0,WNW,16.1,-,N/A,,Clear,290,2013-01-22 11:53:00
5:53 AM,39.0,-0.9,19,30.05,10.0,Variable,6.9,20.7,N/A,,Clear,0,2013-01-22 12:53:00
6:53 AM,33.1,-0.0,24,30.10,10.0,NNE,4.6,-,N/A,,Clear,30,2013-01-22 13:53:00
7:53 AM,36.0,-0.0,22,30.08,10.0,WNW,11.5,-,N/A,,Clear,290,2013-01-22 14:53:00
8:53 AM,41.0,-0.9,17,30.08,10.0,West,17.3,-,N/A,,Clear,280,2013-01-22 15:53:00
9:53 AM,46.0,-4.0,12,30.08,10.0,WNW,18.4,-,N/A,,Clear,290,2013-01-22 16:53:00
10:53 AM,50.0,-5.1,10,30.05,10.0,West,6.9,17.3,N/A,,Clear,270,2013-01-22 17:53:00
11:53 AM,51.1,-4.0,10,30.03,10.0,West,18.4,24.2,N/A,,Clear,280,2013-01-22 18:53:00
12:53 PM,54.0,-2.9,10,29.99,10.0,West,17.3,26.5,N/A,,Clear,280,2013-01-22 19:53:00
1:53 PM,55.0,-2.9,9,29.96,10.0,West,20.7,28.8,N/A,,Clear,270,2013-01-22 20:53:00
2:53 PM,54.0,-2.0,10,29.98,10.0,West,21.9,26.5,N/A,,Clear,260,2013-01-22 21:53:00
3:53 PM,50.0,-0.9,12,30.00,10.0,West,18.4,31.1,N/A,,Clear,270,2013-01-22 22:53:00
4:53 PM,48.0,-0.9,13,30.04,10.0,West,16.1,-,N/A,,Clear,280,2013-01-22 23:53:00
5:53 PM,45.0,-2.9,14,30.08,10.0,WNW,13.8,23.0,N/A,,Clear,300,2013-01-23 00:53:00
6:53 PM,37.9,-0.9,19,30.15,10.0,West,15.0,-,N/A,,Clear,260,2013-01-23 01:53:00
7:53 PM,37.9,-2.0,18,30.16,10.0,West,12.7,-,N/A,,Clear,280,2013-01-23 02:53:00
8:53 PM,39.9,-5.1,15,30.12,10.0,Variable,3.5,-,N/A,,Clear,0,2013-01-23 03:53:00
9:53 PM,42.1,-8.0,12,30.08,10.0,WSW,11.5,-,N/A,,Clear,250,2013-01-23 04:53:00
10:53 PM,41.0,-11.0,11,30.07,10.0,West,8.1,-,N/A,,Clear,280,2013-01-23 05:53:00
11:53 PM,43.0,-13.0,9,30.05,10.0,West,13.8,27.6,N/A,,Clear,270,2013-01-23 06:53:00